Time,TemperatureF,DewpointF,PressureIn,WindDirection,WindDirectionDegrees,WindSpeedMPH,WindSpeedGustMPH,Humidity,HourlyPrecipIn,Conditions,Clouds,dailyrainin,SoftwareType,DateUTC
2013-02-22 00:00:00,48.7,47.1,29.12,ENE,66,0.0,5.8,94,0.04,,---,0.04,VWS V13.00,2013-02-22 06:00:00,
2013-02-22 00:06:00,48.7,47.1,29.12,SE,135,3.6,4.0,94,0.04,,---,0.04,VWS V13.00,2013-02-22 06:06:00,
2013-02-22 00:12:00,48.7,47.4,29.12,ESE,122,0.0,7.2,95,0.04,,---,0.04,VWS V13.00,2013-02-22 06:12:00,
2013-02-22 00:18:00,48.7,47.4,29.12,SW,224,3.6,6.3,95,0.04,,---,0.04,VWS V13.00,2013-02-22 06:18:00,
2013-02-22 00:23:00,48.7,47.4,29.12,SE,124,3.1,5.4,95,0.04,,---,0.04,VWS V13.00,2013-02-22 06:23:00,
2013-02-22 00:28:00,48.7,47.4,29.12,ENE,78,2.7,5.8,95,0.04,,---,0.04,VWS V13.00,2013-02-22 06:28:00,
2013-02-22 00:33:00,48.7,47.4,29.12,SSE,164,3.1,4.5,95,0.00,,---,0.04,VWS V13.00,2013-02-22 06:33:00,
2013-02-22 00:39:00,48.7,47.4,29.12,East,88,0.0,3.6,95,0.00,,---,0.04,VWS V13.00,2013-02-22 06:39:00,
2013-02-22 00:45:00,48.7,47.4,29.12,NNW,346,0.0,3.6,95,0.00,,---,0.04,VWS V13.00,2013-02-22 06:45:00,
2013-02-22 00:51:00,48.7,47.4,29.12,South,180,0.0,4.9,95,0.00,,---,0.04,VWS V13.00,2013-02-22 06:51:00,
2013-02-22 00:57:00,48.7,47.4,29.12,East,82,0.0,4.0,95,0.00,,---,0.04,VWS V13.00,2013-02-22 06:57:00,
2013-02-22 01:03:00,48.7,47.4,29.12,SSW,210,2.7,4.0,95,0.00,,---,0.04,VWS V13.00,2013-02-22 07:03:00,
2013-02-22 01:09:00,48.7,47.7,29.12,SE,143,2.7,2.7,96,0.00,,---,0.04,VWS V13.00,2013-02-22 07:09:00,
2013-02-22 01:15:00,48.9,47.8,29.12,ESE,113,2.2,5.4,96,0.00,,---,0.04,VWS V13.00,2013-02-22 07:15:00,
2013-02-22 01:21:00,48.9,47.8,29.12,SE,128,0.0,7.6,96,0.00,,---,0.04,VWS V13.00,2013-02-22 07:21:00,
2013-02-22 01:27:00,48.9,47.8,29.12,SSE,162,3.6,4.0,96,0.00,,---,0.04,VWS V13.00,2013-02-22 07:27:00,
2013-02-22 01:33:00,48.9,47.8,29.12,ESE,118,3.6,5.4,96,0.00,,---,0.04,VWS V13.00,2013-02-22 07:33:00,
2013-02-22 01:38:00,48.9,47.8,29.12,SE,137,2.2,6.3,96,0.00,,---,0.04,VWS V13.00,2013-02-22 07:38:00,
2013-02-22 01:43:00,48.9,47.8,29.12,NNE,18,4.0,8.7,96,0.00,,---,0.04,VWS V13.00,2013-02-22 07:43:00,
2013-02-22 01:48:00,48.9,48.1,29.12,SSW,202,3.1,4.0,97,0.00,,---,0.04,VWS V13.00,2013-02-22 07:48:00,
2013-02-22 01:54:00,49.1,48.3,29.12,ESE,109,4.9,6.3,97,0.00,,---,0.04,VWS V13.00,2013-02-22 07:54:00,
2013-02-22 02:00:00,49.1,48.3,29.12,SE,126,4.0,8.1,97,0.00,,---,0.04,VWS V13.00,2013-02-22 08:00:00,
2013-02-22 02:06:00,49.1,48.3,29.12,SE,125,0.0,5.4,97,0.00,,---,0.04,VWS V13.00,2013-02-22 08:06:00,
2013-02-22 02:12:00,48.9,47.8,29.12,South,169,0.0,0.0,96,0.00,,---,0.04,VWS V13.00,2013-02-22 08:12:00,
2013-02-22 02:18:00,48.9,47.8,29.12,SSE,154,0.0,0.0,96,0.00,,---,0.04,VWS V13.00,2013-02-22 08:18:00,
2013-02-22 02:23:00,48.9,47.8,29.12,South,180,0.0,0.0,96,0.00,,---,0.04,VWS V13.00,2013-02-22 08:23:00,
2013-02-22 02:28:00,48.9,47.8,29.12,SSE,168,0.0,0.0,96,0.00,,---,0.04,VWS V13.00,2013-02-22 08:28:00,
2013-02-22 02:33:00,48.9,47.8,29.12,SE,136,0.0,0.0,96,0.00,,---,0.04,VWS V13.00,2013-02-22 08:33:00,
2013-02-22 02:40:00,48.9,47.8,29.12,SSE,147,0.0,0.0,96,0.00,,---,0.04,VWS V13.00,2013-02-22 08:40:00,
2013-02-22 02:46:00,48.9,47.8,29.12,SSE,157,0.0,0.0,96,0.00,,---,0.04,VWS V13.00,2013-02-22 08:46:00,
2013-02-22 02:52:00,48.9,47.5,29.12,South,171,0.0,0.0,95,0.00,,---,0.04,VWS V13.00,2013-02-22 08:52:00,
2013-02-22 02:58:00,48.7,47.4,29.12,South,183,0.0,0.0,95,0.00,,---,0.04,VWS V13.00,2013-02-22 08:58:00,
2013-02-22 03:03:00,48.9,47.5,29.12,SW,232,0.0,0.0,95,0.00,,---,0.04,VWS V13.00,2013-02-22 09:03:00,
2013-02-22 03:10:00,48.9,47.5,29.12,ESE,109,0.0,0.0,95,0.00,,---,0.04,VWS V13.00,2013-02-22 09:10:00,
2013-02-22 03:16:00,48.7,47.4,29.12,SW,215,0.0,0.0,95,0.00,,---,0.04,VWS V13.00,2013-02-22 09:16:00,
2013-02-22 03:22:00,48.7,47.4,29.12,South,174,0.0,0.0,95,0.00,,---,0.04,VWS V13.00,2013-02-22 09:22:00,
2013-02-22 03:28:00,48.7,47.4,29.12,SE,146,0.0,0.0,95,0.00,,---,0.04,VWS V13.00,2013-02-22 09:28:00,
2013-02-22 03:33:00,48.7,47.4,29.12,South,169,0.0,0.0,95,0.00,,---,0.04,VWS V13.00,2013-02-22 09:33:00,
2013-02-22 03:38:00,48.7,47.4,29.12,SW,221,0.0,0.0,95,0.00,,---,0.04,VWS V13.00,2013-02-22 09:38:00,
2013-02-22 03:43:00,48.7,47.4,29.12,West,276,0.0,0.0,95,0.00,,---,0.04,VWS V13.00,2013-02-22 09:43:00,
2013-02-22 03:49:00,48.7,47.4,29.12,ESE,112,0.0,0.0,95,0.00,,---,0.04,VWS V13.00,2013-02-22 09:49:00,
2013-02-22 03:55:00,48.7,47.4,29.12,ESE,111,0.0,0.0,95,0.00,,---,0.04,VWS V13.00,2013-02-22 09:55:00,
2013-02-22 04:01:00,48.9,47.5,29.12,South,172,0.0,0.0,95,0.00,,---,0.04,VWS V13.00,2013-02-22 10:01:00,
2013-02-22 04:07:00,48.9,47.5,29.12,SE,146,0.0,0.0,95,0.00,,---,0.04,VWS V13.00,2013-02-22 10:07:00,
2013-02-22 04:13:00,48.7,47.4,29.15,South,172,0.0,0.0,95,0.00,,---,0.04,VWS V13.00,2013-02-22 10:13:00,
2013-02-22 04:18:00,48.7,47.4,29.15,West,271,0.0,0.0,95,0.00,,---,0.04,VWS V13.00,2013-02-22 10:18:00,
2013-02-22 04:23:00,48.9,47.5,29.15,WNW,282,0.0,0.0,95,0.00,,---,0.04,VWS V13.00,2013-02-22 10:23:00,
2013-02-22 04:28:00,48.9,47.5,29.15,South,174,0.0,0.0,95,0.00,,---,0.04,VWS V13.00,2013-02-22 10:28:00,
2013-02-22 04:34:00,48.9,47.5,29.15,SW,234,0.0,0.0,95,0.00,,---,0.04,VWS V13.00,2013-02-22 10:34:00,
2013-02-22 04:40:00,48.9,47.5,29.15,SE,146,0.0,0.0,95,0.00,,---,0.04,VWS V13.00,2013-02-22 10:40:00,
2013-02-22 04:46:00,49.1,47.7,29.15,East,86,0.0,0.0,95,0.00,,---,0.04,VWS V13.00,2013-02-22 10:46:00,
2013-02-22 04:52:00,49.1,47.7,29.15,South,180,0.0,0.0,95,0.00,,---,0.04,VWS V13.00,2013-02-22 10:52:00,
2013-02-22 04:58:00,49.1,47.7,29.18,West,261,0.0,0.0,95,0.00,,---,0.04,VWS V13.00,2013-02-22 10:58:00,
2013-02-22 05:03:00,48.9,47.5,29.18,WSW,240,0.0,0.0,95,0.00,,---,0.04,VWS V13.00,2013-02-22 11:03:00,
2013-02-22 05:10:00,48.7,47.1,29.18,West,265,0.0,0.0,94,0.00,,---,0.04,VWS V13.00,2013-02-22 11:10:00,
2013-02-22 05:16:00,48.6,46.9,29.18,South,173,0.0,0.0,94,0.00,,---,0.04,VWS V13.00,2013-02-22 11:16:00,
2013-02-22 05:22:00,48.4,46.7,29.18,South,187,0.0,0.0,94,0.00,,---,0.04,VWS V13.00,2013-02-22 11:22:00,
2013-02-22 05:28:00,48.2,46.6,29.18,South,178,0.0,0.0,94,0.00,,---,0.04,VWS V13.00,2013-02-22 11:28:00,
2013-02-22 05:33:00,48.2,46.6,29.18,South,176,0.0,0.0,94,0.00,,---,0.04,VWS V13.00,2013-02-22 11:33:00,
2013-02-22 05:38:00,48.2,46.6,29.18,SW,233,0.0,0.0,94,0.00,,---,0.04,VWS V13.00,2013-02-22 11:38:00,
2013-02-22 05:44:00,48.2,46.6,29.18,ESE,105,0.0,0.0,94,0.00,,---,0.04,VWS V13.00,2013-02-22 11:44:00,
2013-02-22 05:50:00,48.0,46.4,29.18,SE,146,0.0,0.0,94,0.00,,---,0.04,VWS V13.00,2013-02-22 11:50:00,
2013-02-22 05:56:00,48.2,46.6,29.18,SSE,149,0.0,0.0,94,0.00,,---,0.04,VWS V13.00,2013-02-22 11:56:00,
2013-02-22 06:02:00,48.2,46.6,29.18,SSW,213,0.0,0.0,94,0.00,,---,0.04,VWS V13.00,2013-02-22 12:02:00,
2013-02-22 06:08:00,48.2,46.6,29.18,South,184,0.0,0.0,94,0.00,,---,0.04,VWS V13.00,2013-02-22 12:08:00,
2013-02-22 06:13:00,48.2,46.6,29.21,South,186,0.0,0.0,94,0.00,,---,0.04,VWS V13.00,2013-02-22 12:13:00,
2013-02-22 06:18:00,48.4,46.7,29.21,ESE,119,0.0,0.0,94,0.00,,---,0.04,VWS V13.00,2013-02-22 12:18:00,
2013-02-22 06:23:00,48.2,46.6,29.21,ESE,121,0.0,0.0,94,0.00,,---,0.04,VWS V13.00,2013-02-22 12:23:00,
2013-02-22 06:28:00,48.2,46.6,29.21,SSW,193,0.0,0.0,94,0.00,,---,0.04,VWS V13.00,2013-02-22 12:28:00,
2013-02-22 06:33:00,48.2,46.6,29.21,South,183,0.0,0.0,94,0.00,,---,0.04,VWS V13.00,2013-02-22 12:33:00,
2013-02-22 06:38:00,48.2,46.6,29.21,SSE,156,0.0,0.0,94,0.00,,---,0.04,VWS V13.00,2013-02-22 12:38:00,
2013-02-22 06:43:00,48.2,46.8,29.21,SSE,162,0.0,0.0,95,0.00,,---,0.04,VWS V13.00,2013-02-22 12:43:00,
2013-02-22 06:50:00,48.2,46.8,29.21,South,186,0.0,0.0,95,0.00,,---,0.04,VWS V13.00,2013-02-22 12:50:00,
2013-02-22 06:56:00,48.4,47.0,29.21,SSW,196,0.0,0.0,95,0.00,,---,0.04,VWS V13.00,2013-02-22 12:56:00,
2013-02-22 07:02:00,48.4,47.0,29.21,SSW,197,0.0,0.0,95,0.00,,---,0.04,VWS V13.00,2013-02-22 13:02:00,
2013-02-22 07:08:00,48.6,47.2,29.21,SSE,154,0.0,0.0,95,0.00,,---,0.04,VWS V13.00,2013-02-22 13:08:00,
2013-02-22 07:14:00,48.7,47.4,29.21,SW,232,0.0,0.0,95,0.00,,---,0.04,VWS V13.00,2013-02-22 13:14:00,
2013-02-22 07:20:00,48.9,47.5,29.21,SSE,164,0.0,0.0,95,0.00,,---,0.04,VWS V13.00,2013-02-22 13:20:00,
2013-02-22 07:26:00,48.9,47.5,29.21,SSE,165,0.0,0.0,95,0.00,,---,0.04,VWS V13.00,2013-02-22 13:26:00,
2013-02-22 07:32:00,49.1,47.7,29.21,SSW,198,0.0,0.0,95,0.00,,---,0.04,VWS V13.00,2013-02-22 13:32:00,
2013-02-22 07:38:00,49.1,47.7,29.21,ESE,110,0.0,0.0,95,0.00,,---,0.04,VWS V13.00,2013-02-22 13:38:00,
2013-02-22 07:43:00,49.3,47.9,29.21,West,270,0.0,0.0,95,0.00,,---,0.04,VWS V13.00,2013-02-22 13:43:00,
2013-02-22 07:50:00,49.5,48.1,29.21,SE,145,0.0,0.0,95,0.00,,---,0.04,VWS V13.00,2013-02-22 13:50:00,
2013-02-22 07:56:00,49.6,48.3,29.21,SSE,156,0.0,0.0,95,0.00,,---,0.04,VWS V13.00,2013-02-22 13:56:00,
2013-02-22 08:02:00,49.8,48.5,29.21,ESE,107,0.0,0.0,95,0.00,,---,0.04,VWS V13.00,2013-02-22 14:02:00,
2013-02-22 08:08:00,49.8,48.5,29.21,SSE,168,0.0,0.0,95,0.00,,---,0.04,VWS V13.00,2013-02-22 14:08:00,
2013-02-22 08:13:00,50.0,48.3,29.21,ESE,115,0.0,0.0,94,0.00,,---,0.04,VWS V13.00,2013-02-22 14:13:00,
2013-02-22 08:18:00,50.2,48.5,29.21,ESE,106,0.0,0.0,94,0.00,,---,0.04,VWS V13.00,2013-02-22 14:18:00,
2013-02-22 08:23:00,50.4,48.4,29.21,ESE,123,0.0,0.0,93,0.00,,---,0.04,VWS V13.00,2013-02-22 14:23:00,
2013-02-22 08:28:00,50.4,48.4,29.21,SSW,199,0.0,0.0,93,0.00,,---,0.04,VWS V13.00,2013-02-22 14:28:00,
2013-02-22 08:33:00,50.5,48.0,29.21,SW,235,0.0,0.0,91,0.00,,---,0.04,VWS V13.00,2013-02-22 14:33:00,
2013-02-22 08:38:00,50.5,47.4,29.21,South,172,0.0,0.0,89,0.00,,---,0.04,VWS V13.00,2013-02-22 14:38:00,
2013-02-22 08:44:00,50.5,46.5,29.23,SW,215,0.0,0.0,86,0.00,,---,0.04,VWS V13.00,2013-02-22 14:44:00,
2013-02-22 08:50:00,50.4,46.0,29.23,ESE,111,0.0,0.0,85,0.00,,---,0.04,VWS V13.00,2013-02-22 14:50:00,
2013-02-22 08:57:00,50.5,46.2,29.23,SSE,150,0.0,0.0,85,0.00,,---,0.04,VWS V13.00,2013-02-22 14:57:00,
2013-02-22 09:03:00,50.5,46.2,29.23,ENE,70,0.0,0.0,85,0.00,,---,0.04,VWS V13.00,2013-02-22 15:03:00,
2013-02-22 09:08:00,50.5,46.2,29.23,East,86,0.0,0.0,85,0.00,,---,0.04,VWS V13.00,2013-02-22 15:08:00,
2013-02-22 09:15:00,50.7,46.4,29.23,ESE,111,0.0,0.0,85,0.00,,---,0.04,VWS V13.00,2013-02-22 15:15:00,
2013-02-22 09:21:00,50.5,45.9,29.23,West,265,0.0,0.0,84,0.00,,---,0.04,VWS V13.00,2013-02-22 15:21:00,
2013-02-22 09:27:00,50.4,45.7,29.23,SE,140,0.0,0.0,84,0.00,,---,0.04,VWS V13.00,2013-02-22 15:27:00,
2013-02-22 09:33:00,50.4,45.7,29.23,South,169,0.0,0.0,84,0.00,,---,0.04,VWS V13.00,2013-02-22 15:33:00,
2013-02-22 09:38:00,50.2,45.5,29.23,SSE,153,0.0,0.0,84,0.00,,---,0.04,VWS V13.00,2013-02-22 15:38:00,
2013-02-22 09:43:00,50.2,45.5,29.23,NE,49,0.0,0.0,84,0.00,,---,0.04,VWS V13.00,2013-02-22 15:43:00,
2013-02-22 09:51:00,50.2,45.5,29.23,SSW,209,0.0,0.0,84,0.00,,---,0.04,VWS V13.00,2013-02-22 15:51:00,
2013-02-22 09:57:00,50.4,45.7,29.23,SSW,209,0.0,0.0,84,0.00,,---,0.04,VWS V13.00,2013-02-22 15:57:00,
2013-02-22 10:03:00,50.5,45.9,29.23,ESE,123,0.0,0.0,84,0.00,,---,0.04,VWS V13.00,2013-02-22 16:03:00,
2013-02-22 10:08:00,50.7,45.8,29.23,South,182,0.0,0.0,83,0.00,,---,0.04,VWS V13.00,2013-02-22 16:08:00,
2013-02-22 10:15:00,51.1,46.1,29.23,SSW,205,0.0,0.0,83,0.00,,---,0.04,VWS V13.00,2013-02-22 16:15:00,
2013-02-22 10:21:00,51.1,45.8,29.23,SSW,193,0.0,0.0,82,0.00,,---,0.04,VWS V13.00,2013-02-22 16:21:00,
2013-02-22 10:27:00,51.1,45.5,29.23,SW,228,0.0,0.0,81,0.00,,---,0.04,VWS V13.00,2013-02-22 16:27:00,
2013-02-22 10:33:00,51.1,45.5,29.23,South,183,0.0,0.0,81,0.00,,---,0.04,VWS V13.00,2013-02-22 16:33:00,
2013-02-22 10:39:00,51.3,45.3,29.23,ESE,119,0.0,0.0,80,0.00,,---,0.04,VWS V13.00,2013-02-22 16:39:00,
2013-02-22 10:45:00,51.1,45.1,29.26,South,172,0.0,0.0,80,0.00,,---,0.04,VWS V13.00,2013-02-22 16:45:00,
2013-02-22 10:51:00,51.3,45.3,29.26,SE,125,0.0,0.0,80,0.00,,---,0.04,VWS V13.00,2013-02-22 16:51:00,
2013-02-22 10:57:00,51.4,45.5,29.26,East,96,0.0,0.0,80,0.00,,---,0.04,VWS V13.00,2013-02-22 16:57:00,
2013-02-22 11:03:00,52.0,46.0,29.26,ENE,78,0.0,0.0,80,0.00,,---,0.04,VWS V13.00,2013-02-22 17:03:00,
2013-02-22 11:08:00,52.0,44.7,29.26,SSW,198,0.0,0.0,76,0.00,,---,0.04,VWS V13.00,2013-02-22 17:08:00,
2013-02-22 11:15:00,51.8,44.5,29.26,South,178,0.0,0.0,76,0.00,,---,0.04,VWS V13.00,2013-02-22 17:15:00,
2013-02-22 11:21:00,51.6,44.7,29.26,East,87,0.0,0.0,77,0.00,,---,0.04,VWS V13.00,2013-02-22 17:21:00,
2013-02-22 11:27:00,51.6,45.0,29.26,SE,141,0.0,0.0,78,0.00,,---,0.04,VWS V13.00,2013-02-22 17:27:00,
2013-02-22 11:33:00,52.0,45.0,29.26,South,180,0.0,0.0,77,0.00,,---,0.04,VWS V13.00,2013-02-22 17:33:00,
2013-02-22 11:38:00,52.0,45.0,29.26,East,94,0.0,0.0,77,0.00,,---,0.04,VWS V13.00,2013-02-22 17:38:00,
2013-02-22 11:45:00,52.3,45.3,29.26,ENE,73,0.0,0.0,77,0.00,,---,0.04,VWS V13.00,2013-02-22 17:45:00,
2013-02-22 11:51:00,52.5,45.2,29.26,South,171,0.0,0.0,76,0.00,,---,0.04,VWS V13.00,2013-02-22 17:51:00,
2013-02-22 11:57:00,52.7,45.4,29.26,ENE,71,0.0,0.0,76,0.00,,---,0.04,VWS V13.00,2013-02-22 17:57:00,
2013-02-22 12:03:00,53.1,45.4,29.26,ENE,71,0.0,0.0,75,0.00,,---,0.04,VWS V13.00,2013-02-22 18:03:00,
2013-02-22 12:10:00,53.1,45.0,29.23,East,84,0.0,0.0,74,0.00,,---,0.04,VWS V13.00,2013-02-22 18:10:00,
2013-02-22 12:16:00,53.2,45.5,29.23,ENE,76,0.0,0.0,75,0.00,,---,0.04,VWS V13.00,2013-02-22 18:16:00,
2013-02-22 12:22:00,53.6,45.5,29.23,SSW,212,0.0,0.0,74,0.00,,---,0.04,VWS V13.00,2013-02-22 18:22:00,
2013-02-22 12:28:00,53.4,44.6,29.23,SE,138,0.0,0.0,72,0.00,,---,0.04,VWS V13.00,2013-02-22 18:28:00,
2013-02-22 12:33:00,53.8,45.3,29.23,North,2,0.0,0.0,73,0.00,,---,0.04,VWS V13.00,2013-02-22 18:33:00,
2013-02-22 12:38:00,53.8,45.0,29.23,ENE,57,0.0,0.0,72,0.00,,---,0.04,VWS V13.00,2013-02-22 18:38:00,
2013-02-22 12:46:00,54.0,45.2,29.23,SE,145,0.0,0.0,72,0.00,,---,0.04,VWS V13.00,2013-02-22 18:46:00,
2013-02-22 12:52:00,54.3,45.9,29.23,West,262,0.0,0.0,73,0.00,,---,0.04,VWS V13.00,2013-02-22 18:52:00,
2013-02-22 12:58:00,54.5,45.3,29.23,East,96,0.0,7.6,71,0.00,,---,0.04,VWS V13.00,2013-02-22 18:58:00,
2013-02-22 13:03:00,54.7,45.5,29.23,ESE,121,3.1,4.0,71,0.00,,---,0.04,VWS V13.00,2013-02-22 19:03:00,
2013-02-22 13:10:00,54.7,45.5,29.21,SSE,167,2.7,4.5,71,0.00,,---,0.04,VWS V13.00,2013-02-22 19:10:00,
2013-02-22 13:16:00,54.5,44.9,29.21,ENE,77,3.6,3.6,70,0.00,,---,0.04,VWS V13.00,2013-02-22 19:16:00,
2013-02-22 13:22:00,54.5,45.3,29.21,ESE,107,4.9,4.9,71,0.00,,---,0.04,VWS V13.00,2013-02-22 19:22:00,
2013-02-22 13:28:00,54.3,44.8,29.21,ESE,122,3.1,5.4,70,0.00,,---,0.04,VWS V13.00,2013-02-22 19:28:00,
2013-02-22 13:33:00,54.0,44.4,29.21,SE,130,0.0,4.0,70,0.00,,---,0.04,VWS V13.00,2013-02-22 19:33:00,
2013-02-22 13:38:00,54.0,44.8,29.21,East,80,0.0,3.6,71,0.00,,---,0.04,VWS V13.00,2013-02-22 19:38:00,
2013-02-22 13:43:00,54.0,44.8,29.21,NNE,29,0.0,0.0,71,0.00,,---,0.04,VWS V13.00,2013-02-22 19:43:00,
2013-02-22 13:49:00,54.0,44.8,29.21,East,82,2.7,2.7,71,0.00,,---,0.04,VWS V13.00,2013-02-22 19:49:00,
2013-02-22 13:55:00,54.3,45.1,29.21,ESE,113,0.0,2.7,71,0.00,,---,0.04,VWS V13.00,2013-02-22 19:55:00,
2013-02-22 14:01:00,54.3,45.1,29.21,SE,142,0.0,2.7,71,0.00,,---,0.04,VWS V13.00,2013-02-22 20:01:00,
2013-02-22 14:07:00,54.1,44.6,29.21,NNE,17,0.0,3.6,70,0.00,,---,0.04,VWS V13.00,2013-02-22 20:07:00,
2013-02-22 14:13:00,53.6,44.1,29.21,NE,44,0.0,3.6,70,0.00,,---,0.04,VWS V13.00,2013-02-22 20:13:00,
2013-02-22 14:19:00,53.4,44.3,29.21,ESE,119,0.0,2.7,71,0.00,,---,0.04,VWS V13.00,2013-02-22 20:19:00,
2013-02-22 14:25:00,53.4,44.6,29.21,East,88,0.0,3.6,72,0.00,,---,0.04,VWS V13.00,2013-02-22 20:25:00,
2013-02-22 14:31:00,53.4,44.6,29.21,ESE,114,0.0,0.0,72,0.00,,---,0.04,VWS V13.00,2013-02-22 20:31:00,
2013-02-22 14:37:00,53.6,44.8,29.21,SSE,166,0.0,3.6,72,0.00,,---,0.04,VWS V13.00,2013-02-22 20:37:00,
2013-02-22 14:43:00,53.4,44.6,29.21,South,177,0.0,3.1,72,0.00,,---,0.04,VWS V13.00,2013-02-22 20:43:00,
2013-02-22 14:49:00,53.2,44.5,29.21,SE,141,0.0,0.0,72,0.00,,---,0.04,VWS V13.00,2013-02-22 20:49:00,
2013-02-22 14:55:00,53.1,44.3,29.21,SE,130,0.0,0.0,72,0.00,,---,0.04,VWS V13.00,2013-02-22 20:55:00,
2013-02-22 15:01:00,53.1,44.7,29.21,WSW,237,0.0,5.8,73,0.00,,---,0.04,VWS V13.00,2013-02-22 21:01:00,
2013-02-22 15:07:00,52.7,44.3,29.21,NNE,29,0.0,0.0,73,0.00,,---,0.04,VWS V13.00,2013-02-22 21:07:00,
2013-02-22 15:13:00,52.7,44.7,29.18,SE,135,0.0,3.6,74,0.00,,---,0.04,VWS V13.00,2013-02-22 21:13:00,
2013-02-22 15:18:00,52.7,44.7,29.18,SE,134,0.0,4.0,74,0.00,,---,0.04,VWS V13.00,2013-02-22 21:18:00,
2013-02-22 15:25:00,52.7,44.7,29.18,SE,142,0.0,0.0,74,0.00,,---,0.04,VWS V13.00,2013-02-22 21:25:00,
2013-02-22 15:31:00,52.7,44.7,29.18,ESE,111,0.0,0.0,74,0.00,,---,0.04,VWS V13.00,2013-02-22 21:31:00,
2013-02-22 15:38:00,52.5,44.5,29.18,SSW,196,0.0,0.0,74,0.00,,---,0.04,VWS V13.00,2013-02-22 21:38:00,
2013-02-22 15:43:00,52.5,44.5,29.18,SSE,161,0.0,0.0,74,0.00,,---,0.04,VWS V13.00,2013-02-22 21:43:00,
2013-02-22 15:48:00,52.5,44.5,29.18,ESE,113,0.0,3.1,74,0.00,,---,0.04,VWS V13.00,2013-02-22 21:48:00,
2013-02-22 15:56:00,52.5,44.5,29.18,ESE,119,0.0,0.0,74,0.00,,---,0.04,VWS V13.00,2013-02-22 21:56:00,
2013-02-22 16:02:00,52.3,44.3,29.18,ESE,114,0.0,2.2,74,0.00,,---,0.04,VWS V13.00,2013-02-22 22:02:00,
2013-02-22 16:08:00,52.2,44.1,29.18,SSE,147,0.0,0.0,74,0.00,,---,0.04,VWS V13.00,2013-02-22 22:08:00,
2013-02-22 16:13:00,52.0,44.0,29.18,East,79,0.0,2.7,74,0.00,,---,0.04,VWS V13.00,2013-02-22 22:13:00,
2013-02-22 16:20:00,51.8,44.1,29.18,ENE,72,0.0,0.0,75,0.00,,---,0.04,VWS V13.00,2013-02-22 22:20:00,
2013-02-22 16:26:00,51.6,44.3,29.21,ESE,112,0.0,0.0,76,0.00,,---,0.04,VWS V13.00,2013-02-22 22:26:00,
2013-02-22 16:32:00,51.6,44.3,29.21,South,171,0.0,3.1,76,0.00,,---,0.04,VWS V13.00,2013-02-22 22:32:00,
2013-02-22 16:38:00,51.4,44.1,29.21,SE,146,0.0,0.0,76,0.00,,---,0.04,VWS V13.00,2013-02-22 22:38:00,
2013-02-22 16:43:00,51.4,44.1,29.18,NNW,342,0.0,0.0,76,0.00,,---,0.04,VWS V13.00,2013-02-22 22:43:00,
2013-02-22 16:50:00,51.3,44.3,29.18,SE,141,0.0,3.6,77,0.00,,---,0.04,VWS V13.00,2013-02-22 22:50:00,
2013-02-22 16:56:00,51.1,44.1,29.21,South,171,0.0,0.0,77,0.00,,---,0.04,VWS V13.00,2013-02-22 22:56:00,
2013-02-22 17:02:00,50.9,44.0,29.21,South,176,0.0,0.0,77,0.00,,---,0.04,VWS V13.00,2013-02-22 23:02:00,
2013-02-22 17:08:00,50.7,44.1,29.21,ESE,108,0.0,0.0,78,0.00,,---,0.04,VWS V13.00,2013-02-22 23:08:00,
2013-02-22 17:14:00,50.7,44.1,29.21,ENE,63,0.0,0.0,78,0.00,,---,0.04,VWS V13.00,2013-02-22 23:14:00,
2013-02-22 17:20:00,50.4,43.8,29.21,NNW,344,0.0,0.0,78,0.00,,---,0.04,VWS V13.00,2013-02-22 23:20:00,
2013-02-22 17:26:00,50.2,43.9,29.21,ENE,77,0.0,0.0,79,0.00,,---,0.04,VWS V13.00,2013-02-22 23:26:00,
2013-02-22 17:32:00,50.2,43.9,29.21,SE,136,0.0,0.0,79,0.00,,---,0.04,VWS V13.00,2013-02-22 23:32:00,
2013-02-22 17:38:00,50.2,43.9,29.21,SE,143,0.0,0.0,79,0.00,,---,0.04,VWS V13.00,2013-02-22 23:38:00,
2013-02-22 17:43:00,50.0,43.8,29.18,ESE,109,0.0,0.0,79,0.00,,---,0.04,VWS V13.00,2013-02-22 23:43:00,
2013-02-22 17:50:00,49.8,43.9,29.18,ENE,73,0.0,0.0,80,0.00,,---,0.04,VWS V13.00,2013-02-22 23:50:00,
2013-02-22 17:56:00,49.8,43.9,29.18,ESE,103,0.0,0.0,80,0.00,,---,0.04,VWS V13.00,2013-02-22 23:56:00,
2013-02-22 18:02:00,49.6,44.1,29.18,ESE,108,0.0,0.0,81,0.00,,---,0.04,VWS V13.00,2013-02-23 00:02:00,
2013-02-22 18:08:00,49.6,44.1,29.18,ENE,77,0.0,0.0,81,0.00,,---,0.04,VWS V13.00,2013-02-23 00:08:00,
2013-02-22 18:14:00,49.5,43.9,29.18,ESE,104,0.0,0.0,81,0.00,,---,0.04,VWS V13.00,2013-02-23 00:14:00,
2013-02-22 18:20:00,49.3,43.7,29.18,East,101,0.0,0.0,81,0.00,,---,0.04,VWS V13.00,2013-02-23 00:20:00,
2013-02-22 18:26:00,49.1,43.5,29.18,East,100,0.0,2.7,81,0.00,,---,0.04,VWS V13.00,2013-02-23 00:26:00,
2013-02-22 18:32:00,49.1,43.8,29.18,East,100,0.0,2.7,82,0.00,,---,0.04,VWS V13.00,2013-02-23 00:32:00,
2013-02-22 18:38:00,48.9,43.7,29.18,ESE,111,0.0,0.0,82,0.00,,---,0.04,VWS V13.00,2013-02-23 00:38:00,
2013-02-22 18:43:00,48.9,43.7,29.18,ESE,111,0.0,0.0,82,0.00,,---,0.04,VWS V13.00,2013-02-23 00:43:00,
2013-02-22 18:50:00,48.7,43.5,29.18,ESE,110,0.0,0.0,82,0.00,,---,0.04,VWS V13.00,2013-02-23 00:50:00,
2013-02-22 18:56:00,48.6,43.3,29.18,ESE,110,0.0,0.0,82,0.00,,---,0.04,VWS V13.00,2013-02-23 00:56:00,
2013-02-22 19:02:00,48.6,43.3,29.18,ESE,110,0.0,0.0,82,0.00,,---,0.04,VWS V13.00,2013-02-23 01:02:00,
2013-02-22 19:08:00,48.4,43.5,29.18,ESE,110,0.0,0.0,83,0.00,,---,0.04,VWS V13.00,2013-02-23 01:08:00,
2013-02-22 19:13:00,48.4,43.5,29.21,SW,228,0.0,0.0,83,0.00,,---,0.04,VWS V13.00,2013-02-23 01:13:00,
2013-02-22 19:20:00,48.6,44.0,29.21,SSW,199,0.0,0.0,84,0.00,,---,0.04,VWS V13.00,2013-02-23 01:20:00,
2013-02-22 19:27:00,48.6,44.0,29.21,ESE,109,0.0,0.0,84,0.00,,---,0.04,VWS V13.00,2013-02-23 01:27:00,
2013-02-22 19:33:00,48.6,44.0,29.21,SSW,199,0.0,0.0,84,0.00,,---,0.04,VWS V13.00,2013-02-23 01:33:00,
2013-02-22 19:38:00,48.6,44.3,29.21,SSE,166,0.0,3.1,85,0.00,,---,0.04,VWS V13.00,2013-02-23 01:38:00,
2013-02-22 19:43:00,48.6,44.3,29.21,SSE,165,0.0,0.0,85,0.00,,---,0.04,VWS V13.00,2013-02-23 01:43:00,
2013-02-22 19:48:00,48.6,44.3,29.21,SSE,165,0.0,0.0,85,0.00,,---,0.04,VWS V13.00,2013-02-23 01:48:00,
2013-02-22 19:54:00,48.6,44.3,29.21,SSE,165,0.0,0.0,85,0.00,,---,0.04,VWS V13.00,2013-02-23 01:54:00,
2013-02-22 20:00:00,48.6,44.3,29.21,SSW,200,3.1,3.1,85,0.00,,---,0.04,VWS V13.00,2013-02-23 02:00:00,
2013-02-22 20:06:00,48.6,44.3,29.21,North,1,0.0,0.0,85,0.00,,---,0.04,VWS V13.00,2013-02-23 02:06:00,
2013-02-22 20:12:00,48.4,44.1,29.21,ENE,68,0.0,0.0,85,0.00,,---,0.04,VWS V13.00,2013-02-23 02:12:00,
2013-02-22 20:18:00,48.4,44.1,29.21,ENE,68,0.0,0.0,85,0.00,,---,0.04,VWS V13.00,2013-02-23 02:18:00,
2013-02-22 20:24:00,48.4,44.1,29.21,WSW,239,0.0,0.0,85,0.00,,---,0.04,VWS V13.00,2013-02-23 02:24:00,
2013-02-22 20:30:00,48.4,44.1,29.21,WSW,239,0.0,0.0,85,0.00,,---,0.04,VWS V13.00,2013-02-23 02:30:00,
2013-02-22 20:36:00,48.4,44.1,29.21,SSE,166,0.0,0.0,85,0.00,,---,0.04,VWS V13.00,2013-02-23 02:36:00,
2013-02-22 20:42:00,48.4,44.1,29.23,SSE,149,0.0,0.0,85,0.00,,---,0.04,VWS V13.00,2013-02-23 02:42:00,
2013-02-22 20:48:00,48.2,43.9,29.23,ENE,73,0.0,2.7,85,0.00,,---,0.04,VWS V13.00,2013-02-23 02:48:00,
2013-02-22 20:54:00,48.2,43.9,29.23,SSE,153,0.0,0.0,85,0.00,,---,0.04,VWS V13.00,2013-02-23 02:54:00,
2013-02-22 21:00:00,48.0,44.0,29.21,SE,133,0.0,0.0,86,0.00,,---,0.04,VWS V13.00,2013-02-23 03:00:00,
2013-02-22 21:06:00,48.0,44.0,29.21,SSW,196,0.0,0.0,86,0.00,,---,0.04,VWS V13.00,2013-02-23 03:06:00,
2013-02-22 21:12:00,47.8,43.9,29.21,SSE,157,0.0,0.0,86,0.00,,---,0.04,VWS V13.00,2013-02-23 03:12:00,
2013-02-22 21:18:00,47.8,43.9,29.21,ESE,105,0.0,0.0,86,0.00,,---,0.04,VWS V13.00,2013-02-23 03:18:00,
2013-02-22 21:23:00,47.7,43.7,29.21,South,175,0.0,0.0,86,0.00,,---,0.04,VWS V13.00,2013-02-23 03:23:00,
2013-02-22 21:30:00,47.5,43.5,29.18,East,97,0.0,0.0,86,0.00,,---,0.04,VWS V13.00,2013-02-23 03:30:00,
2013-02-22 21:36:00,47.5,43.5,29.18,ESE,106,0.0,0.0,86,0.00,,---,0.04,VWS V13.00,2013-02-23 03:36:00,
2013-02-22 21:42:00,47.5,43.5,29.18,SE,142,0.0,0.0,86,0.00,,---,0.04,VWS V13.00,2013-02-23 03:42:00,
2013-02-22 21:48:00,47.5,43.5,29.18,East,96,0.0,0.0,86,0.00,,---,0.04,VWS V13.00,2013-02-23 03:48:00,
2013-02-22 21:53:00,47.5,43.8,29.18,SSW,206,0.0,2.7,87,0.00,,---,0.04,VWS V13.00,2013-02-23 03:53:00,
2013-02-22 22:00:00,47.5,43.8,29.21,SSW,212,0.0,0.0,87,0.00,,---,0.04,VWS V13.00,2013-02-23 04:00:00,
2013-02-22 22:06:00,47.5,44.1,29.21,West,270,0.0,0.0,88,0.00,,---,0.04,VWS V13.00,2013-02-23 04:06:00,
2013-02-22 22:12:00,47.5,44.1,29.23,West,269,0.0,0.0,88,0.00,,---,0.04,VWS V13.00,2013-02-23 04:12:00,
2013-02-22 22:18:00,47.5,44.1,29.23,West,269,0.0,0.0,88,0.00,,---,0.04,VWS V13.00,2013-02-23 04:18:00,
2013-02-22 22:23:00,47.5,44.1,29.23,West,269,0.0,0.0,88,0.00,,---,0.04,VWS V13.00,2013-02-23 04:23:00,
2013-02-22 22:28:00,47.5,44.1,29.21,West,269,0.0,0.0,88,0.00,,---,0.04,VWS V13.00,2013-02-23 04:28:00,
2013-02-22 22:33:00,47.5,44.1,29.21,West,269,0.0,0.0,88,0.04,,---,0.08,VWS V13.00,2013-02-23 04:33:00,
2013-02-22 22:39:00,47.5,44.1,29.21,West,269,0.0,0.0,88,0.04,,---,0.08,VWS V13.00,2013-02-23 04:39:00,
2013-02-22 22:46:00,47.3,43.9,29.21,West,269,0.0,0.0,88,0.04,,---,0.00,VWS V13.00,2013-02-23 04:46:00,
2013-02-22 22:52:00,47.3,43.9,29.21,West,269,0.0,0.0,88,0.04,,---,0.00,VWS V13.00,2013-02-23 04:52:00,
2013-02-22 22:58:00,47.1,43.8,29.21,West,269,0.0,0.0,88,0.04,,---,0.00,VWS V13.00,2013-02-23 04:58:00,
2013-02-22 23:01:00,47.1,44.0,29.21,West,269,0.0,0.0,89,0.08,,---,0.04,VWS V13.00,2013-02-23 05:01:00,
2013-02-22 23:03:00,47.1,44.0,29.21,West,269,0.0,0.0,89,0.08,,---,0.04,VWS V13.00,2013-02-23 05:03:00,
2013-02-22 23:07:00,46.9,43.9,29.21,West,269,0.0,0.0,89,0.08,,---,0.04,VWS V13.00,2013-02-23 05:07:00,
2013-02-22 23:13:00,46.9,43.9,29.15,NE,39,0.0,0.0,89,0.08,,---,0.04,VWS V13.00,2013-02-23 05:13:00,
2013-02-22 23:18:00,46.9,43.9,29.15,NE,39,0.0,0.0,89,0.08,,---,0.04,VWS V13.00,2013-02-23 05:18:00,
2013-02-22 23:23:00,46.8,44.0,29.15,NE,39,0.0,0.0,90,0.08,,---,0.04,VWS V13.00,2013-02-23 05:23:00,
2013-02-22 23:28:00,46.8,44.0,29.15,NE,39,0.0,0.0,90,0.08,,---,0.04,VWS V13.00,2013-02-23 05:28:00,
2013-02-22 23:33:00,46.8,44.0,29.15,NE,39,0.0,0.0,90,0.08,,---,0.04,VWS V13.00,2013-02-23 05:33:00,
2013-02-22 23:40:00,46.8,44.0,29.18,NE,39,0.0,0.0,90,0.04,,---,0.04,VWS V13.00,2013-02-23 05:40:00,
2013-02-22 23:46:00,46.8,44.3,29.18,NE,39,0.0,0.0,91,0.04,,---,0.04,VWS V13.00,2013-02-23 05:46:00,
2013-02-22 23:52:00,46.8,44.3,29.18,NE,35,0.0,0.0,91,0.04,,---,0.04,VWS V13.00,2013-02-23 05:52:00,
2013-02-22 23:58:00,46.9,44.7,29.21,NE,35,0.0,0.0,92,0.04,,---,0.04,VWS V13.00,2013-02-23 05:58:00,